����������;��������(kVARh)
2018-12-10 00:00;0
2018-12-10 00:15;0
2018-12-10 00:30;0
2018-12-10 00:45;0
2018-12-10 01:00;0
2018-12-10 01:15;0
2018-12-10 01:30;0
2018-12-10 01:45;0
2018-12-10 02:00;0
2018-12-10 02:15;0,15
2018-12-10 02:30;0,05
2018-12-10 02:45;0
2018-12-10 03:00;0
2018-12-10 03:15;3,5
2018-12-10 03:30;9,95
2018-12-10 03:45;8,9
2018-12-10 04:00;10,35
2018-12-10 04:15;9,9
2018-12-10 04:30;9,5
2018-12-10 04:45;9,65
2018-12-10 05:00;7,55
2018-12-10 05:15;5,8
2018-12-10 05:30;9,6
2018-12-10 05:45;22,65
2018-12-10 06:00;22,6
2018-12-10 06:15;23,45
2018-12-10 06:30;17,9
2018-12-10 06:45;13,65
2018-12-10 07:00;11,6
2018-12-10 07:15;16,7
2018-12-10 07:30;15,65
2018-12-10 07:45;44,85
2018-12-10 08:00;32,65
2018-12-10 08:15;28,6
2018-12-10 08:30;21,4
2018-12-10 08:45;22,45
2018-12-10 09:00;39,9
2018-12-10 09:15;38,75
2018-12-10 09:30;44,4
2018-12-10 09:45;56,6
2018-12-10 10:00;55,9
2018-12-10 10:15;55,6
2018-12-10 10:30;59
2018-12-10 10:45;61,9
2018-12-10 11:00;61,85
2018-12-10 11:15;62,35
2018-12-10 11:30;70,4
2018-12-10 11:45;63,7
2018-12-10 12:00;67,45
2018-12-10 12:15;62,15
2018-12-10 12:30;62,95
2018-12-10 12:45;68,8
2018-12-10 13:00;69,95
2018-12-10 13:15;66,8
2018-12-10 13:30;75,4
2018-12-10 13:45;74,15
2018-12-10 14:00;71,3
2018-12-10 14:15;73,15
2018-12-10 14:30;69,85
2018-12-10 14:45;69,95
2018-12-10 15:00;64,2
2018-12-10 15:15;66,45
2018-12-10 15:30;69,25
2018-12-10 15:45;61,05
2018-12-10 16:00;55
2018-12-10 16:15;54,95
2018-12-10 16:30;50,4
2018-12-10 16:45;44,85
2018-12-10 17:00;42,35
2018-12-10 17:15;40,9
2018-12-10 17:30;33,05
2018-12-10 17:45;34,15
2018-12-10 18:00;32,9
2018-12-10 18:15;30,65
2018-12-10 18:30;30,95
2018-12-10 18:45;28,3
2018-12-10 19:00;28,2
2018-12-10 19:15;21,65
2018-12-10 19:30;19,4
2018-12-10 19:45;16,25
2018-12-10 20:00;12,5
2018-12-10 20:15;8
2018-12-10 20:30;6,45
2018-12-10 20:45;3,35
2018-12-10 21:00;1,35
2018-12-10 21:15;1,35
2018-12-10 21:30;4,95
2018-12-10 21:45;5,2
2018-12-10 22:00;4,85
2018-12-10 22:15;7,1
2018-12-10 22:30;2,7
2018-12-10 22:45;0
2018-12-10 23:00;0,85
2018-12-10 23:15;0,05
2018-12-10 23:30;0,1
2018-12-10 23:45;0
2018-12-11 00:00;0
2018-12-11 00:15;0
2018-12-11 00:30;0
2018-12-11 00:45;0
2018-12-11 01:00;0
2018-12-11 01:15;0,6
2018-12-11 01:30;1,25
2018-12-11 01:45;0,85
2018-12-11 02:00;1,2
2018-12-11 02:15;2,4
2018-12-11 02:30;1,95
2018-12-11 02:45;2,55
2018-12-11 03:00;2,4
2018-12-11 03:15;2,8
2018-12-11 03:30;2,4
2018-12-11 03:45;4,3
2018-12-11 04:00;15,3
2018-12-11 04:15;14,9
2018-12-11 04:30;14,15
2018-12-11 04:45;13,35
2018-12-11 05:00;14,65
2018-12-11 05:15;13,15
2018-12-11 05:30;9,05
2018-12-11 05:45;19,5
2018-12-11 06:00;27,35
2018-12-11 06:15;25,75
2018-12-11 06:30;22,35
2018-12-11 06:45;19,65
2018-12-11 07:00;17,65
2018-12-11 07:15;14,25
2018-12-11 07:30;14,7
2018-12-11 07:45;43,65
2018-12-11 08:00;19,25
2018-12-11 08:15;22,25
2018-12-11 08:30;24,2
2018-12-11 08:45;25,9
2018-12-11 09:00;40,1
2018-12-11 09:15;46,6
2018-12-11 09:30;51,1
2018-12-11 09:45;63,8
2018-12-11 10:00;70,35
2018-12-11 10:15;64,45
2018-12-11 10:30;62
2018-12-11 10:45;71,4
2018-12-11 11:00;69,75
2018-12-11 11:15;75,1
2018-12-11 11:30;72,35
2018-12-11 11:45;71,25
2018-12-11 12:00;74,4
2018-12-11 12:15;73
2018-12-11 12:30;62,95
2018-12-11 12:45;67,4
2018-12-11 13:00;63,55
2018-12-11 13:15;60,15
2018-12-11 13:30;69,3
2018-12-11 13:45;66,15
2018-12-11 14:00;61
2018-12-11 14:15;70,5
2018-12-11 14:30;64,45
2018-12-11 14:45;58,3
2018-12-11 15:00;67,2
2018-12-11 15:15;63,3
2018-12-11 15:30;59,5
2018-12-11 15:45;56,55
2018-12-11 16:00;52
2018-12-11 16:15;47
2018-12-11 16:30;47,85
2018-12-11 16:45;50
2018-12-11 17:00;42
2018-12-11 17:15;37,8
2018-12-11 17:30;31,4
2018-12-11 17:45;29,3
2018-12-11 18:00;27,15
2018-12-11 18:15;30,3
2018-12-11 18:30;31,35
2018-12-11 18:45;29,05
2018-12-11 19:00;28,4
2018-12-11 19:15;29,05
2018-12-11 19:30;28,2
2018-12-11 19:45;27,4
2018-12-11 20:00;25,4
2018-12-11 20:15;22,9
2018-12-11 20:30;21,35
2018-12-11 20:45;20,35
2018-12-11 21:00;20,4
2018-12-11 21:15;18,4
2018-12-11 21:30;14,55
2018-12-11 21:45;14,45
2018-12-11 22:00;16
2018-12-11 22:15;14,3
2018-12-11 22:30;15,25
2018-12-11 22:45;18,15
2018-12-11 23:00;22,4
2018-12-11 23:15;13,4
2018-12-11 23:30;15,25
2018-12-11 23:45;13,95
2018-12-12 00:00;2,85
2018-12-12 00:15;0,15
2018-12-12 00:30;0
2018-12-12 00:45;0,25
2018-12-12 01:00;1,15
2018-12-12 01:15;10,9
2018-12-12 01:30;9,3
2018-12-12 01:45;9,6
2018-12-12 02:00;10,55
2018-12-12 02:15;10,15
2018-12-12 02:30;10,2
2018-12-12 02:45;11,05
2018-12-12 03:00;9,35
2018-12-12 03:15;8,3
2018-12-12 03:30;8,4
2018-12-12 03:45;7,3
2018-12-12 04:00;8,65
2018-12-12 04:15;8,25
2018-12-12 04:30;10,45
2018-12-12 04:45;9,95
2018-12-12 05:00;10,15
2018-12-12 05:15;9,55
2018-12-12 05:30;9,4
2018-12-12 05:45;9,45
2018-12-12 06:00;9,75
2018-12-12 06:15;24,3
2018-12-12 06:30;22,9
2018-12-12 06:45;23,1
2018-12-12 07:00;22
2018-12-12 07:15;17,05
2018-12-12 07:30;17,25
2018-12-12 07:45;50,3
2018-12-12 08:00;28,5
2018-12-12 08:15;24,65
2018-12-12 08:30;28,35
2018-12-12 08:45;28,95
2018-12-12 09:00;33,65
2018-12-12 09:15;39,4
2018-12-12 09:30;46,4
2018-12-12 09:45;53
2018-12-12 10:00;58,05
2018-12-12 10:15;61,25
2018-12-12 10:30;60
2018-12-12 10:45;65,85
2018-12-12 11:00;63,85
2018-12-12 11:15;60,65
2018-12-12 11:30;71,9
2018-12-12 11:45;64,5
2018-12-12 12:00;59,75
2018-12-12 12:15;68
2018-12-12 12:30;64,25
2018-12-12 12:45;59,3
2018-12-12 13:00;66,25
2018-12-12 13:15;66,7
2018-12-12 13:30;62,4
2018-12-12 13:45;69,5
2018-12-12 14:00;65
2018-12-12 14:15;64,1
2018-12-12 14:30;65,7
2018-12-12 14:45;58,75
2018-12-12 15:00;56,95
2018-12-12 15:15;57,55
2018-12-12 15:30;52,8
2018-12-12 15:45;50,4
2018-12-12 16:00;48,75
2018-12-12 16:15;47,85
2018-12-12 16:30;45,6
2018-12-12 16:45;49,3
2018-12-12 17:00;45,8
2018-12-12 17:15;41,9
2018-12-12 17:30;37,75
2018-12-12 17:45;37,65
2018-12-12 18:00;35,85
2018-12-12 18:15;28,9
2018-12-12 18:30;29,6
2018-12-12 18:45;31,7
2018-12-12 19:00;31,55
2018-12-12 19:15;31,3
2018-12-12 19:30;30,7
2018-12-12 19:45;31,95
2018-12-12 20:00;23,45
2018-12-12 20:15;18,05
2018-12-12 20:30;18,2
2018-12-12 20:45;18,8
2018-12-12 21:00;17
2018-12-12 21:15;16,9
2018-12-12 21:30;17,45
2018-12-12 21:45;14,85
2018-12-12 22:00;9,15
2018-12-12 22:15;3,1
2018-12-12 22:30;0
2018-12-12 22:45;0
2018-12-12 23:00;0,8
2018-12-12 23:15;0,2
2018-12-12 23:30;0,15
2018-12-12 23:45;0
2018-12-13 00:00;0
2018-12-13 00:15;0
2018-12-13 00:30;0
2018-12-13 00:45;0
2018-12-13 01:00;0
2018-12-13 01:15;0,05
2018-12-13 01:30;4,95
2018-12-13 01:45;7,45
2018-12-13 02:00;8
2018-12-13 02:15;8,35
2018-12-13 02:30;9,85
2018-12-13 02:45;8
2018-12-13 03:00;9,3
2018-12-13 03:15;8,4
2018-12-13 03:30;6,45
2018-12-13 03:45;5,85
2018-12-13 04:00;7,7
2018-12-13 04:15;8,6
2018-12-13 04:30;9,85
2018-12-13 04:45;12,6
2018-12-13 05:00;12,7
2018-12-13 05:15;11,8
2018-12-13 05:30;10,5
2018-12-13 05:45;10,3
2018-12-13 06:00;11,5
2018-12-13 06:15;11,35
2018-12-13 06:30;9,6
2018-12-13 06:45;19,9
2018-12-13 07:00;27,25
2018-12-13 07:15;26
2018-12-13 07:30;26,95
2018-12-13 07:45;54,45
2018-12-13 08:00;27,75
2018-12-13 08:15;32,8
2018-12-13 08:30;36,95
2018-12-13 08:45;34,65
2018-12-13 09:00;40,5
2018-12-13 09:15;42,4
2018-12-13 09:30;41,35
2018-12-13 09:45;45,2
2018-12-13 10:00;52,5
2018-12-13 10:15;48,65
2018-12-13 10:30;60,7
2018-12-13 10:45;79,9
2018-12-13 11:00;90,3
2018-12-13 11:15;67,25
2018-12-13 11:30;71,7
2018-12-13 11:45;65,1
2018-12-13 12:00;66,75
2018-12-13 12:15;70,1
2018-12-13 12:30;67,75
2018-12-13 12:45;68,05
2018-12-13 13:00;61,5
2018-12-13 13:15;70
2018-12-13 13:30;62,55
2018-12-13 13:45;70,65
2018-12-13 14:00;66,85
2018-12-13 14:15;83,6
2018-12-13 14:30;58,55
2018-12-13 14:45;73,65
2018-12-13 15:00;71
2018-12-13 15:15;66,8
2018-12-13 15:30;63,9
2018-12-13 15:45;56,45
2018-12-13 16:00;52,75
2018-12-13 16:15;51,1
2018-12-13 16:30;50,2
2018-12-13 16:45;48,2
2018-12-13 17:00;44,65
2018-12-13 17:15;43,95
2018-12-13 17:30;38,2
2018-12-13 17:45;35,55
2018-12-13 18:00;31,65
2018-12-13 18:15;29,65
2018-12-13 18:30;26,15
2018-12-13 18:45;24,4
2018-12-13 19:00;22,7
2018-12-13 19:15;20,1
2018-12-13 19:30;21
2018-12-13 19:45;20,5
2018-12-13 20:00;18
2018-12-13 20:15;14,95
2018-12-13 20:30;9,35
2018-12-13 20:45;10,05
2018-12-13 21:00;10,3
2018-12-13 21:15;12,15
2018-12-13 21:30;13,95
2018-12-13 21:45;9,25
2018-12-13 22:00;8,1
2018-12-13 22:15;8,9
2018-12-13 22:30;7,55
2018-12-13 22:45;9,25
2018-12-13 23:00;6,2
2018-12-13 23:15;1,85
2018-12-13 23:30;1,35
2018-12-13 23:45;0,4
2018-12-14 00:00;0,05
2018-12-14 00:15;0
2018-12-14 00:30;0,25
2018-12-14 00:45;0,4
2018-12-14 01:00;0,6
2018-12-14 01:15;0,3
2018-12-14 01:30;1,5
2018-12-14 01:45;9,65
2018-12-14 02:00;11,9
2018-12-14 02:15;12
2018-12-14 02:30;13,35
2018-12-14 02:45;13,7
2018-12-14 03:00;13,25
2018-12-14 03:15;9,75
2018-12-14 03:30;10,1
2018-12-14 03:45;24,1
2018-12-14 04:00;28,4
2018-12-14 04:15;29,7
2018-12-14 04:30;23,95
2018-12-14 04:45;21,85
2018-12-14 05:00;19,25
2018-12-14 05:15;18,95
2018-12-14 05:30;18,75
2018-12-14 05:45;19
2018-12-14 06:00;17,8
2018-12-14 06:15;16,85
2018-12-14 06:30;19,55
2018-12-14 06:45;18,45
2018-12-14 07:00;19,5
2018-12-14 07:15;19,95
2018-12-14 07:30;23,55
2018-12-14 07:45;50,7
2018-12-14 08:00;60,95
2018-12-14 08:15;30,3
2018-12-14 08:30;27,9
2018-12-14 08:45;36,6
2018-12-14 09:00;34,5
2018-12-14 09:15;49,75
2018-12-14 09:30;41,6
2018-12-14 09:45;45,35
2018-12-14 10:00;46,35
2018-12-14 10:15;58,25
2018-12-14 10:30;59,5
2018-12-14 10:45;54,2
2018-12-14 11:00;59,65
2018-12-14 11:15;55,45
2018-12-14 11:30;66
2018-12-14 11:45;57,35
2018-12-14 12:00;59,3
2018-12-14 12:15;55,5
2018-12-14 12:30;53,75
2018-12-14 12:45;56,95
2018-12-14 13:00;47,6
2018-12-14 13:15;46,1
2018-12-14 13:30;49,1
2018-12-14 13:45;46,4
2018-12-14 14:00;50,8
2018-12-14 14:15;43,25
2018-12-14 14:30;44,65
2018-12-14 14:45;52,1
2018-12-14 15:00;43,6
2018-12-14 15:15;42,45
2018-12-14 15:30;40,75
2018-12-14 15:45;37,05
2018-12-14 16:00;34,05
2018-12-14 16:15;32,45
2018-12-14 16:30;33,75
2018-12-14 16:45;38,3
2018-12-14 17:00;36
2018-12-14 17:15;39,6
2018-12-14 17:30;28,9
2018-12-14 17:45;29,65
2018-12-14 18:00;30,4
2018-12-14 18:15;33,65
2018-12-14 18:30;33
2018-12-14 18:45;32,95
2018-12-14 19:00;27,75
2018-12-14 19:15;28,4
2018-12-14 19:30;22,3
2018-12-14 19:45;22,4
2018-12-14 20:00;22,25
2018-12-14 20:15;21,55
2018-12-14 20:30;21,9
2018-12-14 20:45;21,55
2018-12-14 21:00;19,9
2018-12-14 21:15;20,7
2018-12-14 21:30;19,65
2018-12-14 21:45;10,1
2018-12-14 22:00;7,6
2018-12-14 22:15;3,85
2018-12-14 22:30;3
2018-12-14 22:45;1,6
2018-12-14 23:00;4,95
2018-12-14 23:15;6,5
2018-12-14 23:30;6,3
2018-12-14 23:45;1,5
2018-12-15 00:00;0,3
2018-12-15 00:15;1,1
2018-12-15 00:30;1,65
2018-12-15 00:45;3,05
2018-12-15 01:00;4,1
2018-12-15 01:15;3,2
2018-12-15 01:30;1,05
2018-12-15 01:45;1,1
2018-12-15 02:00;1,05
2018-12-15 02:15;1,1
2018-12-15 02:30;1,95
2018-12-15 02:45;1,65
2018-12-15 03:00;1,65
2018-12-15 03:15;2,05
2018-12-15 03:30;1,8
2018-12-15 03:45;1,65
2018-12-15 04:00;2,75
2018-12-15 04:15;1,9
2018-12-15 04:30;1,4
2018-12-15 04:45;2,6
2018-12-15 05:00;2,3
2018-12-15 05:15;1,5
2018-12-15 05:30;1,7
2018-12-15 05:45;1
2018-12-15 06:00;0,7
2018-12-15 06:15;0,45
2018-12-15 06:30;0,2
2018-12-15 06:45;0
2018-12-15 07:00;0
2018-12-15 07:15;0
2018-12-15 07:30;0
2018-12-15 07:45;0
2018-12-15 08:00;0
2018-12-15 08:15;0
2018-12-15 08:30;0
2018-12-15 08:45;2
2018-12-15 09:00;0,25
2018-12-15 09:15;0
2018-12-15 09:30;0,5
2018-12-15 09:45;0,7
2018-12-15 10:00;3,15
2018-12-15 10:15;3
2018-12-15 10:30;2,05
2018-12-15 10:45;2,45
2018-12-15 11:00;3,25
2018-12-15 11:15;4,3
2018-12-15 11:30;2,95
2018-12-15 11:45;2,25
2018-12-15 12:00;2,6
2018-12-15 12:15;2,55
2018-12-15 12:30;0,15
2018-12-15 12:45;0,05
2018-12-15 13:00;0
2018-12-15 13:15;0
2018-12-15 13:30;0,45
2018-12-15 13:45;1,2
2018-12-15 14:00;0,8
2018-12-15 14:15;1,95
2018-12-15 14:30;2,45
2018-12-15 14:45;3,35
2018-12-15 15:00;4,9
2018-12-15 15:15;2,5
2018-12-15 15:30;2,85
2018-12-15 15:45;6
2018-12-15 16:00;5,9
2018-12-15 16:15;5,55
2018-12-15 16:30;8,45
2018-12-15 16:45;8,1
2018-12-15 17:00;8,2
2018-12-15 17:15;6,85
2018-12-15 17:30;5,3
2018-12-15 17:45;7,5
2018-12-15 18:00;6,2
2018-12-15 18:15;6,25
2018-12-15 18:30;5,4
2018-12-15 18:45;6,3
2018-12-15 19:00;5,95
2018-12-15 19:15;6,5
2018-12-15 19:30;6,75
2018-12-15 19:45;5,35
2018-12-15 20:00;4,9
2018-12-15 20:15;3,8
2018-12-15 20:30;5
2018-12-15 20:45;6,85
2018-12-15 21:00;6,55
2018-12-15 21:15;7,65
2018-12-15 21:30;6,35
2018-12-15 21:45;3,45
2018-12-15 22:00;2,9
2018-12-15 22:15;4,85
2018-12-15 22:30;5,8
2018-12-15 22:45;7,2
2018-12-15 23:00;10,15
2018-12-15 23:15;3
2018-12-15 23:30;4,5
2018-12-15 23:45;6
2018-12-16 00:00;4,65
2018-12-16 00:15;5
2018-12-16 00:30;6,35
2018-12-16 00:45;4,65
2018-12-16 01:00;0,3
2018-12-16 01:15;0
2018-12-16 01:30;0
2018-12-16 01:45;0,05
2018-12-16 02:00;0,45
2018-12-16 02:15;0,25
2018-12-16 02:30;0,05
2018-12-16 02:45;0
2018-12-16 03:00;0
2018-12-16 03:15;0
2018-12-16 03:30;0
2018-12-16 03:45;0
2018-12-16 04:00;0,05
2018-12-16 04:15;0,05
2018-12-16 04:30;0
2018-12-16 04:45;0,05
2018-12-16 05:00;0,25
2018-12-16 05:15;0,05
2018-12-16 05:30;0,15
2018-12-16 05:45;0
2018-12-16 06:00;0,05
2018-12-16 06:15;0
2018-12-16 06:30;0
2018-12-16 06:45;0
2018-12-16 07:00;0
2018-12-16 07:15;0
2018-12-16 07:30;0
2018-12-16 07:45;0
2018-12-16 08:00;0
2018-12-16 08:15;0
2018-12-16 08:30;0,1
2018-12-16 08:45;0,1
2018-12-16 09:00;0,2
2018-12-16 09:15;5,9
2018-12-16 09:30;5,9
2018-12-16 09:45;4,1
2018-12-16 10:00;5
2018-12-16 10:15;5,5
2018-12-16 10:30;5,8
2018-12-16 10:45;4,4
2018-12-16 11:00;4,55
2018-12-16 11:15;5,6
2018-12-16 11:30;4,5
2018-12-16 11:45;4,3
2018-12-16 12:00;4,55
2018-12-16 12:15;3,9
2018-12-16 12:30;4,3
2018-12-16 12:45;5,8
2018-12-16 13:00;4,5
2018-12-16 13:15;3,25
2018-12-16 13:30;6,4
2018-12-16 13:45;5,9
2018-12-16 14:00;0
2018-12-16 14:15;0
2018-12-16 14:30;0
2018-12-16 14:45;10,35
2018-12-16 15:00;6,85
2018-12-16 15:15;6,5
2018-12-16 15:30;7,65
2018-12-16 15:45;6,4
2018-12-16 16:00;5,3
2018-12-16 16:15;4,9
2018-12-16 16:30;3,45
2018-12-16 16:45;2,6
2018-12-16 17:00;4,75
2018-12-16 17:15;9,1
2018-12-16 17:30;9,1
2018-12-16 17:45;11,2
2018-12-16 18:00;10,4
2018-12-16 18:15;10,7
2018-12-16 18:30;12,85
2018-12-16 18:45;11,05
2018-12-16 19:00;8,95
2018-12-16 19:15;8,6
2018-12-16 19:30;7,05
2018-12-16 19:45;6,7
2018-12-16 20:00;8
2018-12-16 20:15;7,65
2018-12-16 20:30;6,8
2018-12-16 20:45;5,45
2018-12-16 21:00;6,55
2018-12-16 21:15;4,35
2018-12-16 21:30;4,5
2018-12-16 21:45;3,3
2018-12-16 22:00;3,7
2018-12-16 22:15;3,65
2018-12-16 22:30;4,6
2018-12-16 22:45;6,45
2018-12-16 23:00;4,7
2018-12-16 23:15;1,3
2018-12-16 23:30;2,3
2018-12-16 23:45;3,9

